Spring Hill, FL

4:51 PM EDT on September 25, 2016 (GMT -0400)
Hernando County

Weather History for KBKV - April, 2014

Change the Weather History Date:

Wednesday, April 23, 2014

  Actual Average Record
Temperature  
Mean Temperature 67 °F -  
Max Temperature 80 °F 80 °F 91 °F (1999)
Min Temperature 55 °F 54 °F 44 °F (2003)
Cooling Degree Days 2    
Growing Degree Days 17 (Base 50)    
Moisture  
Dew Point 59 °F    
Average Humidity 81    
Maximum Humidity 97    
Minimum Humidity 56    
Precipitation  
Precipitation 0.00 in - - ()
Sea Level Pressure  
Sea Level Pressure 29.94 in    
Wind  
Wind Speed 2 mph (West)    
Max Wind Speed 10 mph    
Max Gust Speed -    
Visibility 9 miles    
Events      
Averages and records for this station are not official NWS values.
T = Trace of Precipitation, MM = Missing Value Source: NWS Daily Summary

Daily Weather History Graph

Daily Weather History Graph

Search for Another Location

Airport or City:

Trip Planner

Search our weather history database for the weather conditions in past years. The results will help you decide how hot, cold, wet, or windy it might be!

Date:

Astronomy

Apr. 23, 2014 Rise Set
Actual Time 6:56 AM EDT 8:00 PM EDT
Civil Twilight 6:31 AM EDT 8:24 PM EDT
Nautical Twilight 6:02 AM EDT 8:53 PM EDT
Astronomical Twilight 5:33 AM EDT 9:23 PM EDT
Moon 2:57 AM EDT (4/23) 2:35 PM EDT (4/23)
Length of Visible Light 13h 52m
Length of Day
13h 03m
Waning Crescent, 35% of the Moon is Illuminated
Apr 23
Waning Crescent
Apr 29
New
May 6
First Quarter
May 14
Full
May 21
Last Quarter

Hourly Weather History & Observations

Time (EDT) Temp. Dew Point Humidity Pressure Visibility Wind Dir Wind Speed Gust Speed Precip Events Conditions
12:53 AM 57.0 °F 55.0 °F 93% 29.93 in 10.0 mi Calm Calm - N/A   Clear
1:53 AM 59.0 °F 55.9 °F 90% 29.92 in 10.0 mi Calm Calm - N/A   Partly Cloudy
2:19 AM 59.0 °F 57.9 °F 96% 29.92 in 10.0 mi Calm Calm - N/A   Mostly Cloudy
2:53 AM 59.0 °F 57.0 °F 93% 29.90 in 10.0 mi Calm Calm - N/A   Scattered Clouds
3:31 AM 59.0 °F 57.0 °F 93% 29.90 in 8.0 mi Calm Calm - N/A   Mostly Cloudy
3:48 AM 59.0 °F 57.2 °F 94% 29.90 in 9.0 mi Calm Calm - N/A   Scattered Clouds
4:08 AM 55.9 °F 55.0 °F 97% 29.90 in 1.8 mi Calm Calm - N/A   Partly Cloudy
4:17 AM 57.9 °F 57.0 °F 97% 29.91 in 3.0 mi Calm Calm - N/A   Partly Cloudy
4:44 AM 57.9 °F 55.9 °F 93% 29.91 in 9.0 mi Calm Calm - N/A   Mostly Cloudy
4:53 AM 57.9 °F 57.0 °F 97% 29.91 in 10.0 mi Calm Calm - N/A   Overcast
5:53 AM 57.0 °F 55.0 °F 93% 29.91 in 9.0 mi Calm Calm - N/A   Scattered Clouds
6:50 AM 57.2 °F 55.4 °F 94% 29.93 in 7.0 mi Calm Calm - N/A   Mostly Cloudy
6:53 AM 57.0 °F 55.9 °F 96% 29.93 in 8.0 mi Calm Calm - N/A   Mostly Cloudy
7:44 AM 59.0 °F 57.0 °F 93% 29.95 in 10.0 mi Calm Calm - N/A   Partly Cloudy
7:53 AM 60.1 °F 57.9 °F 93% 29.95 in 9.0 mi Calm Calm - N/A   Partly Cloudy
8:53 AM 66.9 °F 62.1 °F 84% 29.96 in 10.0 mi Calm Calm - N/A   Clear
9:53 AM 72.0 °F 61.0 °F 68% 29.97 in 10.0 mi West 9.2 mph - N/A   Unknown
10:06 AM 71.1 °F 60.1 °F 68% 29.98 in 10.0 mi West 8.1 mph - N/A   Mostly Cloudy
10:15 AM 73.0 °F 61.0 °F 66% 29.98 in 10.0 mi West 10.4 mph - N/A   Unknown
10:53 AM 75.0 °F 61.0 °F 62% 29.98 in 10.0 mi WNW 6.9 mph - N/A   Partly Cloudy
11:53 AM 75.0 °F 61.0 °F 62% 29.98 in 10.0 mi North - - N/A   Partly Cloudy
12:53 PM 75.9 °F 61.0 °F 60% 29.96 in 10.0 mi NW 8.1 mph - N/A   Mostly Cloudy
1:53 PM 77.0 °F 62.1 °F 60% 29.94 in 10.0 mi NW 10.4 mph - N/A   Mostly Cloudy
2:53 PM 78.1 °F 62.1 °F 58% 29.93 in 10.0 mi West 9.2 mph - N/A   Clear
3:53 PM 79.0 °F 62.1 °F 56% 29.91 in 10.0 mi WNW 8.1 mph - N/A   Clear
4:53 PM 78.1 °F 62.1 °F 58% 29.91 in 10.0 mi West 10.4 mph - N/A   Clear
5:53 PM 75.9 °F 62.1 °F 62% 29.90 in 10.0 mi West 8.1 mph - N/A   Clear
6:53 PM 73.9 °F 61.0 °F 64% 29.91 in 10.0 mi West 10.4 mph - N/A   Clear
7:53 PM 69.1 °F 62.1 °F 78% 29.93 in 10.0 mi West 6.9 mph - N/A   Clear
8:53 PM 66.0 °F 62.1 °F 87% 29.94 in 10.0 mi West 4.6 mph - N/A   Clear
9:53 PM 63.0 °F 60.1 °F 90% 29.96 in 9.0 mi SSW 6.9 mph - N/A   Clear
10:53 PM 62.1 °F 60.1 °F 93% 29.97 in 3.0 mi Calm Calm - N/A   Clear
11:53 PM 61.0 °F 59.0 °F 93% 29.98 in 5.0 mi Calm Calm - 0.00 in   Clear